EW5499 Weather Reports


Display with metric or nautical units.
time (UTC)temp
F
wind
direction
speed
MPH
gust
MPH
rain 1hr
in
rain 24hr
in
rain mn
in
humidity
%
barometer
mb
20260507191533 45 264 5.0 7.0 0.00 0.00 0.00 65 1011.8
20260507190038 46 273 5.0 8.0 0.00 0.00 0.00 65 1011.9
20260507184537 45 265 5.0 7.0 0.00 0.00 0.00 66 1011.9
20260507183027 45 260 5.0 8.0 0.00 0.00 0.00 66 1012.0
20260507181524 44 266 5.0 7.0 0.00 0.00 0.00 66 1012.1
20260507180022 44 262 6.0 8.0 0.00 0.00 0.00 65 1012.1
20260507174526 43 274 6.0 7.0 0.00 0.00 0.00 68 1012.3
20260507173022 43 268 6.0 8.0 0.00 0.00 0.00 70 1012.5
20260507171514 43 257 5.0 8.0 0.00 0.00 0.00 71 1012.6
20260507170013 42 263 5.0 8.0 0.00 0.00 0.00 72 1012.9
20260507164514 41 259 4.0 8.0 0.00 0.00 0.00 75 1013.1
20260507163006 40 261 6.0 8.0 0.00 0.00 0.00 75 1013.2
20260507161509 40 263 6.0 8.0 0.00 0.00 0.00 76 1013.3
20260507160005 40 268 6.0 8.0 0.00 0.00 0.00 76 1013.4
20260507154504 40 265 6.0 9.0 0.00 0.00 0.00 76 1013.4
20260507153005 41 267 4.0 7.0 0.00 0.00 0.00 75 1013.2
20260507151503 40 269 4.0 7.0 0.00 0.00 0.00 77 1013.3
20260507150001 40 260 5.0 7.0 0.00 0.00 0.00 77 1013.3
20260507144559 40 261 4.0 7.0 0.00 0.00 0.00 79 1013.4
20260507143059 40 268 5.0 8.0 0.00 0.00 0.00 78 1013.3
20260507141602 40 256 6.0 8.0 0.00 0.00 0.00 79 1013.3
20260507140121 40 256 5.0 7.0 0.00 0.00 0.00 79 1013.4
20260507134555 40 259 5.0 7.0 0.00 0.00 0.00 78 1013.4
20260507133054 41 262 6.0 8.0 0.00 0.00 0.00 77 1013.3
20260507131603 41 259 6.0 9.0 0.00 0.00 0.00 74 1013.2
20260507130053 40 268 4.0 7.0 0.00 0.00 0.00 76 1013.3
20260507124602 40 277 4.0 7.0 0.00 0.00 0.00 79 1013.2
20260507123054 39 257 5.0 8.0 0.00 0.00 0.00 82 1013.1
20260507121546 38 253 5.0 7.0 0.00 0.00 0.00 84 1013.1
20260507120044 37 256 2.0 6.0 0.00 0.00 0.00 80 1013.0
20260507114544 36 286 1.0 3.0 0.00 0.00 0.00 80 1012.8
20260507113039 36 286 0.0 3.0 0.00 0.00 0.00 81 1012.5
20260507111534 35 96 1.0 4.0 0.00 0.00 0.00 82 1012.4
20260507110033 34 95 1.0 4.0 0.00 0.00 0.00 83 1012.2
20260507104631 34 94 1.0 4.0 0.00 0.00 0.00 83 1012.2
20260507103032 34 92 1.0 4.0 0.00 0.00 0.00 84 1012.1
20260507101536 34 92 1.0 3.0 0.00 0.00 0.00 85 1012.1
20260507100033 34 91 2.0 4.0 0.00 0.00 0.00 85 1012.2
20260507094528 34 92 2.0 3.0 0.00 0.00 0.00 84 1012.1
20260507093036 34 92 1.0 3.0 0.00 0.00 0.00 84 1012.1
20260507091516 34 92 2.0 3.0 0.00 0.00 0.00 83 1012.1
20260507090021 35 92 1.0 3.0 0.00 0.00 0.00 83 1012.2
20260507084511 35 92 1.0 4.0 0.00 0.00 0.00 83 1012.2
20260507083022 35 92 1.0 3.0 0.00 0.00 0.00 83 1012.3
20260507081511 36 92 1.0 3.0 0.00 0.00 0.00 83 1012.4
20260507080006 36 92 1.0 3.0 0.00 0.00 0.00 81 1012.4
20260507074510 37 92 1.0 3.0 0.00 0.00 0.00 80 1012.5
20260507073118 37 92 1.0 3.0 0.00 0.00 0.00 79 1012.6
20260507071609 38 92 2.0 3.0 0.00 0.00 0.00 78 1012.7
20260507070056 38 92 1.0 6.0 0.00 0.00 0.00 77 1012.7
20260507064558 38 94 3.0 6.0 0.00 0.00 0.00 76 1012.8
20260507063055 39 90 2.0 6.0 0.00 0.00 0.00 76 1013.0
20260507061552 39 88 2.0 4.0 0.00 0.00 0.00 76 1013.0
20260507060055 39 87 0.0 4.0 0.00 0.00 0.00 75 1013.1
20260507054552 39 86 2.0 4.0 0.00 0.00 0.00 74 1013.1
20260507053048 40 94 1.0 8.0 0.00 0.00 0.00 73 1013.2
20260507051546 40 78 2.0 5.0 0.00 0.00 0.00 72 1013.2
20260507050043 40 94 2.0 4.0 0.00 0.00 0.00 71 1013.2
20260507044542 40 84 1.0 5.0 0.00 0.00 0.00 71 1013.1
20260507043040 40 69 3.0 6.0 0.00 0.00 0.00 72 1013.1
20260507041538 40 80 2.0 5.0 0.00 0.00 0.00 73 1013.0
20260507040035 40 42 2.0 3.0 0.00 0.00 0.00 73 1012.9
20260507034534 41 289 1.0 3.0 0.00 0.00 0.00 73 1012.9
20260507033036 41 289 0.0 2.0 0.00 0.00 0.00 72 1013.0
20260507031533 42 289 0.0 1.0 0.00 0.00 0.00 72 1013.1
20260507030033 42 289 1.0 4.0 0.00 0.00 0.00 71 1013.1
20260507024534 42 290 2.0 4.0 0.00 0.00 0.00 70 1013.1
20260507023031 42 288 3.0 4.0 0.00 0.00 0.00 70 1013.0
20260507021531 43 285 4.0 8.0 0.00 0.00 0.00 72 1013.0
20260507020033 43 262 2.0 6.0 0.00 0.00 0.00 70 1012.8
20260507014529 43 260 2.0 7.0 0.00 0.00 0.00 71 1012.7
20260507013036 43 251 2.0 7.0 0.00 0.00 0.00 70 1012.6
20260507011537 43 261 2.0 4.0 0.00 0.00 0.00 68 1012.4
20260507010029 43 262 2.0 3.0 0.00 0.00 0.00 67 1012.4
20260507004527 43 260 2.0 4.0 0.00 0.00 0.00 67 1012.4
20260507003026 43 286 2.0 4.0 0.00 0.00 0.00 65 1012.4
20260507001529 43 286 1.0 3.0 0.00 0.00 0.00 64 1012.3
20260507000025 44 286 2.0 4.0 0.00 0.00 0.00 63 1012.2
20260506234531 43 298 2.0 4.0 0.00 0.00 0.00 62 1012.3
20260506233026 43 302 1.0 3.0 0.00 0.00 0.00 60 1012.2
20260506231525 44 302 2.0 3.0 0.00 0.00 0.00 58 1012.3
20260506230023 43 302 2.0 4.0 0.00 0.00 0.00 60 1012.4
20260506224528 44 302 2.0 4.0 0.00 0.00 0.00 58 1012.4
20260506223023 44 302 2.0 4.0 0.00 0.00 0.00 58 1012.6
20260506221523 44 302 2.0 4.0 0.00 0.00 0.00 56 1012.6
20260506220009 45 302 3.0 5.0 0.00 0.00 0.00 55 1012.6
20260506214509 45 318 2.0 4.0 0.00 0.00 0.00 57 1012.5
20260506213018 44 319 2.0 4.0 0.00 0.00 0.00 58 1012.6
20260506211511 44 309 2.0 4.0 0.00 0.00 0.00 60 1012.6
20260506210007 44 309 2.0 4.0 0.00 0.00 0.00 61 1012.7
20260506204507 44 309 3.0 4.0 0.00 0.00 0.00 59 1012.9
20260506203006 44 313 2.0 4.0 0.00 0.00 0.00 58 1012.9
20260506201507 45 300 3.0 4.0 0.00 0.00 0.00 56 1012.7
20260506200010 46 317 3.0 6.0 0.00 0.00 0.00 55 1012.7
20260506194505 46 298 4.0 6.0 0.00 0.00 0.00 57 1012.8
20260506193004 45 309 3.0 8.0 0.00 0.00 0.00 56 1012.8